User: anonymous   Login
Location: Cella
(44.7333°N, 10.5667°E)
Time: 04:14:04
(UTC+00:00)
Language:

Cosmos 1470 Rocket - Orbit

View from above orbital plane
View from above orbital plane
View from above satellite
View from above satellite

Ground track
Ground track

The orbit data is extracted from the following two-line orbital elements,

1 14148U 83061B   21125.46877968  .00000073  00000-0  59394-5 0  9997
2 14148  82.5220  21.0849 0021073 341.9459 191.1742 14.83376936 23955
Epoch (UTC): 05 May 2021 11:15:02
Eccentricity: 0.0021073
inclination: 82.5220°
perigee height: 604 km
apogee height: 633 km
right ascension of ascending node: 21.0849°
argument of perigee: 341.9459°
revolutions per day: 14.83376936
mean anomaly at epoch: 191.1742°
orbit number at epoch: 2395

The dashed part of the orbit path shows where the satellite is in the earth's shadow,  

DLR